Stations météo

Publicité
Bale-Mulhouse, France (7299): Température de l'air & dewpoint: 15.10.2019 04:00:00 - 21.10.2019 04:00:00 (CEST)Bale-Mulhouse, France (7299): Température de l'air 5cm: 15.10.2019 04:00:00 - 21.10.2019 04:00:00 (CEST)Bale-Mulhouse, France (7299): Température de l'air -20cm & Température de l'air -100cm: 15.10.2019 04:00:00 - 21.10.2019 04:00:00 (CEST)Bale-Mulhouse, France (7299): Vitesse du vent & gusts: 15.10.2019 04:00:00 - 21.10.2019 04:00:00 (CEST)Bale-Mulhouse, France (7299): Direction du vent: 15.10.2019 04:00:00 - 21.10.2019 04:00:00 (CEST)Bale-Mulhouse, France (7299): reduced air pressure: 15.10.2019 04:00:00 - 21.10.2019 04:00:00 (CEST)Bale-Mulhouse, France (7299): visibility: 15.10.2019 04:00:00 - 21.10.2019 04:00:00 (CEST)Bale-Mulhouse, France (7299): Quantités de précipitations: 15.10.2019 04:00:00 - 21.10.2019 04:00:00 (CEST)
Date & Time tt [°C] td [°C] tt 5cm [°C] tt -20cm [°C] tt -100cm [°C] ff [km/h] ff [knt] fx [km/h] fx [knt] dd ppp [hPa] vv [km] rr [mm]
21.10.2019 04:00:00 13,5 13,2 13,2 14,8 15,6 6 3 11 6 S 1014,8 2,5 0,4
21.10.2019 03:00:00 13,7 13,2 13,3 14,8 15,6 9 5 11 6 E 1014,1 5 1,2
21.10.2019 02:00:00 14,1 13,1 13,2 14,9 15,6 9 5 20 11 W 1012,9 7 0,2
21.10.2019 01:00:00 13,7 13,1 12,7 14,9 15,6 10 5 18 10 S 1011,9 11 0,0
21.10.2019 00:00:00 13,4 12,6 12,8 15,0 15,6 7 4 23 12 S 1012,2 12 0,0
20.10.2019 23:00:00 14,7 13,4 11,1 15,0 15,6 19 10 41 22 WNW 1012,6 12 0,0
20.10.2019 22:00:00 11,8 11,3 9,9 15,1 15,7 8 4 11 6 WSW 1009,4 12 0,0
20.10.2019 21:00:00 12,2 11,7 10,0 15,1 15,7 0 0 10 5 N 1008,5 15 0,0
20.10.2019 20:00:00 12,6 11,5 11,3 15,0 15,6 7 4 8 5 W 1008,2 35 0,0
20.10.2019 19:00:00 14,5 12,2 12,8 15,0 15,7 7 4 15 8 NW 1007,6 35 0,0
20.10.2019 18:00:00 17,6 13,5 16,9 14,8 15,7 6 3 15 8 NNE 1007,0 43 0,0
20.10.2019 17:00:00 18,3 13,2 18,9 14,7 15,7 5 3 13 7 E 1006,8 40 0,0
20.10.2019 16:00:00 18,2 13,1 19,5 14,5 15,7 5 3 18 10 NNE 1006,5 35 0,0
20.10.2019 15:00:00 17,2 12,9 17,7 14,4 15,7 9 5 18 10 NE 1006,9 30 0,0
20.10.2019 14:00:00 16,0 12,9 16,9 14,3 15,7 8 4 18 10 NNE 1007,4 20 0,0
20.10.2019 13:00:00 15,7 12,8 15,9 14,2 15,7 12 7 23 12 E 1007,3 20 0,0
20.10.2019 12:00:00 14,5 11,8 14,9 14,2 15,7 10 6 19 10 E 1008,0 15 0,0
20.10.2019 11:00:00 13,8 11,7 13,6 14,2 15,7 10 5 17 9 E 1008,2 15 0,0
20.10.2019 10:00:00 13,5 12,2 11,6 14,2 15,7 6 3 16 9 ENE 1008,1 15 0,0
20.10.2019 09:00:00 11,5 10,9 10,2 14,3 15,7 7 4 16 9 E 1008,4 15 0,0
20.10.2019 08:00:00 10,8 10,6 8,3 14,4 15,7 8 5 14 8 ENE 1008,4 15 0,0
20.10.2019 07:00:00 9,7 9,4 8,6 14,5 15,7 3 2 21 12 NNW 1008,5 10 0,0
20.10.2019 06:00:00 10,4 10,2 9,3 14,5 15,7 4 2 8 4 NE 1008,4 1,8 0,0
20.10.2019 05:00:00 11,3 11,1 10,5 14,5 15,7 4 2 11 6 NNE 1008,7 1,8 0,0
20.10.2019 04:00:00 11,1 10,9 10,6 14,6 15,7 3 2 6 4 WSW 1008,1 0,4 0,0
20.10.2019 03:00:00 11,6 11,4 11,2 14,6 15,7 5 3 13 7 NW 1008,4 0,2 0,2
20.10.2019 02:00:00 11,9 11,7 10,5 14,6 15,7 8 5 13 7 NNE 1008,6 0,4 0,0
20.10.2019 01:00:00 12,0 11,7 11,3 14,7 15,7 9 5 14 7 WNW 1008,8 2,9 0,0
20.10.2019 00:00:00 12,5 12,2 12,1 14,7 15,7 9 5 12 7 SE 1009,5 3,0 0,0
19.10.2019 23:00:00 12,9 12,6 12,6 14,7 15,7 7 4 18 10 N 1009,4 8 0,2
19.10.2019 22:00:00 12,9 12,6 12,6 14,7 15,7 7 4 19 11 E 1009,6 8 0,2
19.10.2019 21:00:00 12,9 12,6 12,6 14,8 15,8 4 2 15 8 N 1009,8 9 0,6
19.10.2019 20:00:00 13,1 12,8 12,6 14,8 15,8 8 4 15 8 SE 1009,3 9 0,4
19.10.2019 19:00:00 13,2 12,7 12,8 14,8 15,8 5 3 14 8 SE 1009,0 9 1,0
19.10.2019 18:00:00 13,8 12,4 13,0 14,8 15,8 6 4 12 7 S 1009,2 15 0,0
19.10.2019 17:00:00 13,7 12,8 13,3 14,7 15,8 5 3 20 11 NE 1008,9 15 0,4
19.10.2019 16:00:00 14,0 12,6 13,3 14,7 15,8 12 6 26 14 SE 1009,3 15 0,0
19.10.2019 15:00:00 13,8 12,5 13,2 14,7 15,8 16 9 33 18 ESE 1009,8 15 1,0
19.10.2019 14:00:00 13,8 12,4 13,4 14,7 15,8 21 12 31 17 ESE 1009,7 16 0,6
19.10.2019 13:00:00 14,1 12,3 13,3 14,7 15,8 19 10 35 19 E 1010,5 30 0,0
19.10.2019 12:00:00 13,7 12,4 12,5 14,7 15,8 13 7 21 11 ESE 1010,8 20 0,2
19.10.2019 11:00:00 12,9 12,0 12,4 14,7 15,8 13 7 26 14 ESE 1011,1 20 1,8
19.10.2019 10:00:00 12,9 12,0 12,3 14,7 15,7 14 7 29 15 SSE 1011,9 6 2,1
19.10.2019 09:00:00 12,8 11,9 12,1 14,8 15,8 18 10 33 18 ESE 1011,1 12 0,6
19.10.2019 08:00:00 12,5 12,0 12,0 14,9 15,8 8 5 24 13 ESE 1010,3 10 1,4
19.10.2019 07:00:00 12,5 11,9 12,0 15,0 15,8 15 8 32 17 SSE 1011,0 8 3,0
19.10.2019 06:00:00 12,4 11,8 11,9 15,0 15,8 7 4 26 14 SE 1011,0 5 1,8
19.10.2019 05:00:00 12,4 11,9 11,9 15,1 15,8 7 4 25 14 SSE 1011,3 42 1,2
19.10.2019 04:00:00 12,3 11,8 11,8 15,1 15,8 12 7 20 11 SSE 1012,0 25 0,6
19.10.2019 03:00:00 12,4 11,9 12,0 15,2 15,8 14 7 19 10 ESE 1012,4 4,8 1,7
19.10.2019 02:00:00 12,6 11,8 12,1 15,3 15,8 10 5 27 15 ESE 1012,6 23 0,8
19.10.2019 01:00:00 12,8 12,2 12,3 15,3 15,8 14 8 26 14 SE 1012,9 6 1,0
19.10.2019 00:00:00 13,0 12,5 12,5 15,4 15,8 15 8 24 13 SE 1013,6 9 1,2
18.10.2019 23:00:00 13,0 12,2 12,4 15,4 15,8 11 6 19 10 SE 1013,9 7 1,2
18.10.2019 22:00:00 13,1 12,0 12,6 15,4 15,8 11 6 18 10 SSE 1013,9 12 1,4
18.10.2019 21:00:00 13,7 11,7 13,1 15,4 15,8 9 5 20 11 SE 1013,5 20 0,0
18.10.2019 20:00:00 14,2 11,9 13,6 15,4 15,8 7 4 15 8 S 1013,8 20 0,2
18.10.2019 19:00:00 14,4 12,4 13,8 15,4 15,8 12 6 15 8 SSE 1013,4 14 0,0
18.10.2019 18:00:00 15,7 12,1 15,1 15,3 15,8 7 4 14 7 S 1013,2 25 0,0
18.10.2019 17:00:00 16,6 12,1 16,9 15,2 15,8 7 4 26 14 S 1013,1 30 0,2
18.10.2019 16:00:00 17,3 12,6 14,9 15,1 15,8 10 5 20 11 SW 1013,5 44 0,0
18.10.2019 15:00:00 15,4 12,9 13,8 15,0 15,7 10 5 29 16 SW 1013,7 46 0,0
18.10.2019 14:00:00 14,2 12,6 13,5 14,9 15,8 19 11 55 30 WSW 1013,7 5 7,0
18.10.2019 13:00:00 20,5 11,4 20,6 14,8 15,8 16 9 31 17 SSW 1011,8 28 0,0
18.10.2019 12:00:00 18,8 12,3 17,5 14,7 15,8 11 6 23 13 S 1012,4 28 0,0
18.10.2019 11:00:00 16,6 12,5 15,1 14,8 15,9 9 5 21 11 SSE 1012,8 28 0,0
18.10.2019 10:00:00 14,5 12,7 13,3 14,8 15,8 10 6 18 10 SSE 1013,3 25 0,0
18.10.2019 09:00:00 13,5 12,4 11,9 14,8 15,8 9 5 16 8 SSE 1013,2 25 0,0
18.10.2019 08:00:00 12,6 11,7 11,1 14,9 15,8 9 5 16 8 S 1013,2 25 0,2
18.10.2019 07:00:00 12,5 11,7 11,6 14,9 15,8 4 2 11 6 SE 1013,5 13 0,0
18.10.2019 06:00:00 12,2 11,4 11,1 14,9 15,8 7 4 15 8 S 1013,9 13 0,0
18.10.2019 05:00:00 12,5 11,9 11,3 15,0 15,8 8 4 12 6 S 1014,1 12 0,0
18.10.2019 04:00:00 13,1 12,2 11,8 15,0 15,8 6 4 10 6 SSE 1014,5 15 0,0
18.10.2019 03:00:00 13,4 12,6 12,4 15,0 15,8 5 3 11 6 S 1014,8 9 0,0
18.10.2019 02:00:00 13,5 12,4 12,5 15,0 15,8 6 3 13 7 SSE 1014,8 18 0,0
18.10.2019 01:00:00 13,8 12,9 13,4 15,0 15,8 9 5 17 9 SSE 1015,2 21 0,0
18.10.2019 00:00:00 13,9 13,1 13,5 15,0 15,8 5 3 10 6 S 1015,4 20 0,0
17.10.2019 23:00:00 14,1 13,1 13,5 15,0 15,8 3 2 13 7 SE 1015,7 20 0,0
17.10.2019 22:00:00 14,2 13,4 13,5 15,1 15,9 10 5 18 10 SE 1015,6 15 0,0
17.10.2019 21:00:00 14,3 13,7 13,7 15,0 15,8 10 5 16 9 SE 1015,8 8 0,6
17.10.2019 20:00:00 14,4 13,6 13,5 15,0 15,9 8 4 15 8 ESE 1015,7 10 0,2
17.10.2019 19:00:00 14,4 13,1 13,6 14,9 15,9 4 2 6 3 SSE 1015,6 15 0,6
17.10.2019 18:00:00 15,0 12,9 14,1 14,9 15,9 6 3 17 9 WNW 1015,2 20 0,4
17.10.2019 17:00:00 16,9 12,0 15,9 14,7 15,9 14 8 24 13 WNW 1014,6 30 0,0
17.10.2019 16:00:00 19,0 10,8 18,9 14,6 15,9 5 3 10 5 ENE 1013,8 40 0,0
17.10.2019 15:00:00 19,7 9,8 20,4 14,4 15,9 6 3 16 9 NNE 1013,7 40 0,0
17.10.2019 14:00:00 20,0 9,5 19,9 14,3 15,9 11 6 23 12 ESE 1014,0 50 0,0
17.10.2019 13:00:00 19,4 10,4 19,9 14,2 15,9 9 5 17 9 ESE 1014,4 50 0,0
17.10.2019 12:00:00 18,1 10,5 18,6 14,1 15,9 11 6 22 12 SE 1015,1 40 0,0
17.10.2019 11:00:00 15,4 9,1 17,8 14,1 15,9 11 6 21 11 SSE 1016,0 40 0,0
17.10.2019 10:00:00 13,1 8,8 12,7 14,1 15,9 10 5 15 8 S 1016,4 40 0,0
17.10.2019 09:00:00 11,9 8,7 10,3 14,1 15,9 11 6 16 9 S 1016,6 40 0,0
17.10.2019 08:00:00 10,5 8,1 10,0 14,2 15,9 8 5 14 8 S 1016,5 40 0,0
17.10.2019 07:00:00 10,8 8,0 10,4 14,2 15,9 9 5 14 8 S 1016,3 40 0,0
17.10.2019 06:00:00 10,8 7,8 10,3 14,2 15,9 11 6 18 10 S 1016,4 40 0,0
17.10.2019 05:00:00 10,9 7,8 10,3 14,3 16,0 13 7 19 10 S 1016,5 40 0,0
17.10.2019 04:00:00 10,7 7,8 10,2 14,4 16,0 8 5 14 7 S 1016,3 60 0,0
17.10.2019 03:00:00 10,7 7,6 9,9 14,4 16,0 8 4 18 10 S 1016,2 60 0,0
17.10.2019 02:00:00 10,7 7,6 9,9 14,5 16,0 10 5 16 9 S 1015,9 60 0,0
17.10.2019 01:00:00 10,5 7,6 9,5 14,6 16,0 11 6 18 10 SSE 1015,6 59 0,0
17.10.2019 00:00:00 10,5 7,6 9,2 14,6 16,0 10 6 18 10 S 1015,7 40 0,0
16.10.2019 23:00:00 10,3 7,5 8,8 14,7 16,0 9 5 17 9 S 1015,6 40 0,0
16.10.2019 22:00:00 10,2 7,6 7,5 14,7 16,0 10 5 16 8 S 1015,5 40 0,0
16.10.2019 21:00:00 10,4 7,6 7,5 14,8 16,0 5 3 8 4 SSE 1015,4 40 0,0
16.10.2019 20:00:00 12,7 7,6 9,3 14,8 16,0 5 3 18 10 E 1014,9 40 0,0
16.10.2019 19:00:00 14,7 7,7 11,8 14,7 16,0 8 4 21 12 ESE 1014,3 60 0,0
16.10.2019 18:00:00 17,0 8,7 16,4 14,6 16,0 11 6 26 14 ESE 1013,9 60 0,0
16.10.2019 17:00:00 18,5 8,7 19,4 14,4 16,0 13 7 20 11 ESE 1013,9 60 0,0
16.10.2019 16:00:00 18,8 6,6 21,4 14,3 16,0 8 5 18 10 ESE 1014,2 60 0,0
16.10.2019 15:00:00 18,6 8,0 19,2 14,2 16,0 7 4 22 12 ESE 1014,6 60 0,0
16.10.2019 14:00:00 17,8 6,3 19,1 14,0 16,0 7 4 22 12 ESE 1015,1 50 0,0
16.10.2019 13:00:00 16,9 7,0 17,8 14,0 16,1 11 6 22 12 ESE 1016,1 50 0,0
16.10.2019 12:00:00 15,8 8,3 16,7 14,0 16,1 12 6 24 13 SE 1016,8 50 0,0
16.10.2019 11:00:00 13,6 7,8 15,1 14,0 16,1 15 8 21 11 ESE 1017,4 40 0,0
16.10.2019 10:00:00 11,4 8,1 12,3 14,1 16,1 12 7 20 11 SSE 1018,0 40 0,0
16.10.2019 09:00:00 9,4 7,8 7,6 14,2 16,1 10 5 21 11 S 1017,9 40 0,0
16.10.2019 08:00:00 7,9 6,8 5,8 14,3 16,1 10 5 16 9 SSE 1017,8 40 0,0
16.10.2019 07:00:00 7,7 6,2 5,8 14,4 16,1 11 6 16 9 SSE 1017,7 40 0,0
16.10.2019 06:00:00 8,4 6,9 5,7 14,5 16,1 11 6 16 9 ESE 1017,6 40 0,0
16.10.2019 05:00:00 8,8 6,2 6,9 14,7 16,1 9 5 17 9 S 1017,6 20 0,0
16.10.2019 04:00:00 7,5 6,8 5,3 14,8 16,1 6 4 13 7 S 1017,7 57 0,0
16.10.2019 03:00:00 6,8 6,1 5,0 14,9 16,1 2 1 11 6 N 1017,9 22 0,0
16.10.2019 02:00:00 8,1 6,9 5,9 15,0 16,1 7 4 18 10 SE 1017,6 48 0,0
16.10.2019 01:00:00 9,9 7,7 7,5 15,1 16,1 7 4 17 9 SSW 1016,9 60 0,0
16.10.2019 00:00:00 11,1 8,8 9,6 15,1 16,1 6 3 13 7 SSW 1016,9 50 0,0
15.10.2019 23:00:00 11,0 9,3 10,1 15,2 16,1 5 3 19 11 SW 1016,2 50 0,0
15.10.2019 22:00:00 11,1 9,7 10,5 15,2 16,1 14 8 47 26 WSW 1015,1 30 0,2
15.10.2019 21:00:00 11,8 10,4 11,0 15,3 16,1 22 12 38 20 WSW 1013,9 15 0,4
15.10.2019 20:00:00 12,3 11,0 11,6 15,3 16,1 2 1 11 6 SSW 1013,1 15 0,5
15.10.2019 19:00:00 12,6 11,5 11,9 15,3 16,1 8 4 18 10 S 1012,0 40 0,2
15.10.2019 18:00:00 12,8 12,0 12,7 15,3 16,1 6 3 16 9 WSW 1010,5 8 1,6
15.10.2019 17:00:00 13,1 12,5 12,9 15,3 16,1 4 2 10 6 SSE 1009,9 6 1,0
15.10.2019 16:00:00 13,1 12,5 13,1 15,3 16,1 7 4 16 9 E 1009,5 8 1,2
15.10.2019 15:00:00 13,4 12,5 13,2 15,2 16,1 8 5 11 6 E 1009,8 6 1,8
15.10.2019 14:00:00 13,8 11,5 13,3 15,2 16,1 5 3 26 14 SW 1010,1 10 0,2
15.10.2019 13:00:00 15,5 11,1 15,9 15,2 16,1 10 6 36 19 W 1009,9 60 0,0
15.10.2019 12:00:00 15,8 11,0 16,1 15,2 16,1 19 11 34 18 W 1010,2 40 0,0
15.10.2019 11:00:00 15,7 11,9 15,9 15,2 16,1 18 10 37 20 WSW 1009,3 30 0,0
15.10.2019 10:00:00 15,1 12,8 12,8 15,2 16,1 18 10 42 23 W 1008,7 20 0,0
15.10.2019 09:00:00 12,6 11,7 10,6 15,2 16,1 8 5 22 12 WSW 1008,2 12 0,0
15.10.2019 08:00:00 11,0 10,5 9,9 15,3 16,1 5 3 10 5 SW 1007,3 10 0,0
15.10.2019 07:00:00 11,1 10,5 9,8 15,4 16,0 4 2 11 6 SW 1007,1 10 0,0
15.10.2019 06:00:00 10,8 10,0 8,6 15,5 16,0 6 4 10 6 WNW 1007,6 10 0,0
15.10.2019 05:00:00 11,4 10,1 8,7 15,6 16,1 4 2 12 7 S 1008,0 20 0,0
15.10.2019 04:00:00 12,7 11,3 11,5 15,7 16,0 6 4 18 10 S 1008,7 25 0,0

tt = Température de l'air
td = dewpoint
tt 5cm = Température de l'air 5cm
tt -20cm = Température de l'air -20cm
tt -100cm = Température de l'air -100cm
ff = Vitesse du vent
fx = gusts
dd = Direction du vent
ppp = reduced air pressure
vv = visibility
rr = Quantités de précipitations

stations d'obs. à proximité